[[{"header":{"parameterUnit":"m.s-1","parameterCategory":1,"la1":30.2991,"la2":30.254,"lo1":-89.0895,"lo2":-89.0444,"dy":0.0017,"dx":0.0017,"nx":28,"ny":28,"refTime":"2024-08-15T21:00:00:Z","depth":0,"parameterNumber":2,"parameterNumberName":"U-component_of_WINDS"},"data":[0,0,0,0,0,0,0,0,0,0,0,0,0,0,0,0,0,0,0,0,0,0,0,0,0,0,0,0,0,0,0,0,0,0,0,0,0,0,0,0,0,0,0,0,0,0,0,0,0,0,0,0,0,0,0,0,0,0,0.1993,0.1994,0,0.2095,0.2096,0.2097,0.2153,0.2153,0.2153,0.2153,0.2258,0.226,0.2263,0,0,0,0,0,0,0,0,0,0,0,0,0,0.1844,0.1847,0.1993,0.1994,0.1995,0.2095,0.2096,0.2098,0.2153,0.2153,0.2153,0.2153,0.2257,0.226,0.2263,0,0,0,0,0,0,0,0,0,0,0,0,0,0.1924,0.1848,0.1992,0.2035,0.204,0.2094,0.2096,0.2098,0.2153,0.2153,0.2153,0.2153,0.2256,0.226,0.2264,0.2285,0,0,0.2276,0.2278,0,0,0,0,0,0,0,0,0.1919,0.1929,0.2027,0.2032,0.2037,0.2111,0.2082,0.216,0.2153,0.211,0.2153,0.2153,0.2209,0.2217,0.2236,0.2289,0.2294,0.2276,0.2279,0.2281,0.2282,0,0,0,0,0,0,0,0.1914,0.1925,0.2033,0.2029,0.2035,0.2048,0.206,0.2097,0.2157,0.2113,0.2118,0.2129,0.2212,0.2232,0.2238,0.2295,0.2276,0.228,0.2282,0.2284,0.237,0.237,0,0,0,0,0,0,0.1901,0.192,0.203,0.2036,0.1978,0.2051,0.2064,0.2087,0.2157,0.2167,0.2129,0.2131,0.2225,0.2234,0.2242,0.227,0.228,0.2284,0.2287,0.237,0.237,0.237,0,0,0,0,0,0,0.1898,0.1911,0.2026,0.1979,0.1995,0.2053,0.2079,0.2089,0.2109,0.2168,0.2179,0.2138,0.2225,0.2237,0.2273,0.2275,0.2286,0.229,0.237,0.237,0.237,0.2327,0,0,0,0,0,0,0.1894,0.1909,0.1918,0.1979,0.1997,0.2055,0.2079,0.2091,0.2116,0.212,0.218,0.219,0.2226,0.2267,0.2277,0.2281,0.2293,0.237,0.237,0.237,0.2328,0.2325,0.2323,0,0,0,0,0,0.1888,0.1902,0.1918,0.1931,0.201,0.2055,0.2066,0.2107,0.2116,0.2125,0.2163,0.2188,0.2273,0.227,0.2282,0.2287,0.2371,0.237,0.237,0.233,0.2326,0.2323,0,0,0,0,0,0,0.184,0.1911,0.193,0.1964,0.2003,0.2064,0.2077,0.2102,0.2139,0.2142,0.2191,0.2204,0.2236,0.2265,0.2261,0.231,0.2324,0.2326,0.229,0.2286,0.2283,0.2276,0.2296,0,0,0,0,0,0.1833,0.1864,0.1925,0.1949,0.1968,0.2019,0.204,0.2069,0.2111,0.2128,0.2169,0.2209,0.2245,0.2267,0.2303,0.2333,0.2346,0.2342,0.2339,0.2336,0.2337,0.2354,0.2352,0.2369,0.2369,0.2369,0,0,0.182,0.1862,0.1879,0.1941,0.1974,0.2005,0.2033,0.2064,0.2088,0.2133,0.217,0.2201,0.2249,0.2282,0.2298,0.2307,0.2335,0.2336,0.2333,0.2336,0.2353,0.2352,0.235,0.2369,0.2369,0.2369,0,0,0.1811,0.1847,0.1871,0.1903,0.1954,0.1988,0.1993,0.2051,0.2073,0.211,0.2145,0.2173,0.2234,0.2266,0.2291,0.2292,0.2317,0.2303,0.2287,0.2303,0.2302,0.2301,0.23,0.23,0.2304,0.2304,0.2304,0,0.1788,0.1836,0.188,0.1909,0.1935,0.1977,0.2001,0.203,0.209,0.2106,0.2115,0.2191,0.2227,0.2267,0.2267,0.2286,0.2293,0.2296,0.2298,0.2298,0.2297,0.2298,0.2298,0.2302,0.2302,0.2302,0.2302,0,0.1805,0.1838,0.1851,0.1907,0.1934,0.196,0.2007,0.2029,0.2054,0.2087,0.2124,0.2168,0.2213,0.2224,0.225,0.2268,0.2272,0.2289,0.2304,0.2293,0.2294,0.2295,0.2299,0.2299,0.23,0.23,0,0,0.177,0.1848,0.1852,0.1878,0.1936,0.1962,0.199,0.2034,0.2051,0.209,0.2114,0.2164,0.218,0.2207,0.2237,0.225,0.2247,0.2266,0.2267,0.226,0.2269,0.2255,0.2255,0.2264,0.2264,0.2264,0.2264,0,0.1769,0.1821,0.186,0.1898,0.1928,0.1967,0.1992,0.2029,0.206,0.209,0.2124,0.2157,0.2176,0.2193,0.2208,0.2244,0.225,0.2245,0.2286,0.2287,0.2273,0.2255,0.2242,0.224,0.2265,0.2265,0.2265,0,0.1775,0.1813,0.1852,0.1906,0.192,0.1941,0.1984,0.2012,0.2055,0.2077,0.2106,0.2136,0.2167,0.2179,0.2221,0.2217,0.2236,0.2256,0.2257,0.2263,0.2275,0.226,0.224,0.224,0.2267,0.2267,0.2266,0,0.1744,0.1805,0.1836,0.1857,0.1921,0.1934,0.1961,0.2005,0.2028,0.2065,0.2081,0.2121,0.2142,0.2173,0.2212,0.2218,0.225,0.2266,0.2268,0.2266,0.2273,0.2272,0.2255,0.2285,0.2285,0.2285,0.2285,0,0.1739,0.1762,0.1823,0.1842,0.1869,0.1913,0.1938,0.1968,0.2006,0.2031,0.2068,0.2091,0.2142,0.2171,0.2202,0.2231,0.2241,0.2259,0.2267,0.2255,0.2253,0.2269,0.2269,0.2285,0.2285,0.2285,0.2285,0,0.1709,0.1751,0.1788,0.1845,0.186,0.1876,0.1925,0.1945,0.1977,0.2008,0.2018,0.2069,0.2104,0.2147,0.2197,0.2217,0.2244,0.2256,0.2229,0.2234,0.2233,0.2232,0.2226,0.2227,0.2256,0.2255,0.2255,0,0.1703,0.1722,0.178,0.18,0.1826,0.1857,0.1881,0.1925,0.1948,0.1997,0.2011,0.2049,0.2082,0.2137,0.2178,0.2216,0.2229,0.2224,0.2235,0.2222,0.2228,0.2226,0.2228,0.2221,0.2221,0.222,0.222,0,0.1688,0.1707,0.174,0.178,0.1807,0.1841,0.1876,0.1889,0.194,0.1964,0.2001,0.2027,0.2077,0.2114,0.2157,0.2184,0.221,0.2216,0.2218,0.2207,0.219,0.2198,0.222,0.2216,0.2216,0.2217,0.2217,0.2217,0.1669,0.1687,0.173,0.1766,0.1796,0.1828,0.1849,0.1883,0.1915,0.1959,0.1983,0.2018,0.206,0.212,0.2146,0.2174,0.2184,0.2187,0.2188,0.2188,0.2184,0.2185,0.2182,0.2183,0.2183,0.2183,0.2183,0,0.1655,0.1684,0.1716,0.1764,0.1791,0.1813,0.1852,0.1874,0.1905,0.1941,0.1973,0.2014,0.205,0.2093,0.2131,0.2146,0.2158,0.2154,0.2153,0.2159,0.2174,0.2168,0.2143,0.2143,0.2143,0.2143,0.2143,0.2143,0.165,0.1681,0.1705,0.1751,0.1781,0.1816,0.1837,0.1865,0.1895,0.1939,0.1969,0.1997,0.2036,0.2077,0.2111,0.2122,0.2134,0.2126,0.2141,0.2155,0.2158,0.2162,0.2156,0.2129,0.2129,0.2124,0.2124,0.2124]},{"header":{"parameterUnit":"m.s-1","parameterCategory":1,"la1":30.2991,"la2":30.254,"lo1":-89.0895,"lo2":-89.0444,"dy":0.0017,"dx":0.0017,"nx":28,"ny":28,"refTime":"2024-08-15T21:00:00:Z","depth":0,"parameterNumber":3,"parameterNumberName":"V-component_of_WINDS"},"data":[0,0,0,0,0,0,0,0,0,0,0,0,0,0,0,0,0,0,0,0,0,0,0,0,0,0,0,0,0,0,0,0,0,0,0,0,0,0,0,0,0,0,0,0,0,0,0,0,0,0,0,0,0,0,0,0,0,0,4.3037,4.3037,0,4.2982,4.2982,4.2981,4.2981,4.2982,4.2983,4.2984,4.292,4.2917,4.2915,0,0,0,0,0,0,0,0,0,0,0,0,0,4.3136,4.3134,4.3037,4.3037,4.3036,4.2982,4.2982,4.2981,4.2981,4.2982,4.2983,4.2984,4.292,4.2918,4.2915,0,0,0,0,0,0,0,0,0,0,0,0,0,4.3088,4.3134,4.3038,4.303,4.3029,4.2983,4.2982,4.2981,4.2981,4.2982,4.2983,4.2984,4.2921,4.2918,4.2914,4.287,0,0,4.2903,4.2902,0,0,0,0,0,0,0,0,4.3091,4.3085,4.3032,4.303,4.3029,4.299,4.2993,4.2943,4.2981,4.2999,4.2984,4.2985,4.2942,4.2936,4.2923,4.2867,4.2864,4.2903,4.2901,4.2899,4.2898,0,0,0,0,0,0,0,4.3094,4.3087,4.3015,4.3031,4.3029,4.3027,4.3021,4.2984,4.2964,4.2997,4.2997,4.2991,4.2941,4.2927,4.2922,4.2863,4.2903,4.29,4.2898,4.2896,4.2766,4.2765,0,0,0,0,0,0,4.31,4.309,4.3017,4.3014,4.3064,4.3024,4.3018,4.3001,4.2965,4.2961,4.299,4.2991,4.2932,4.2926,4.292,4.2864,4.2899,4.2896,4.2894,4.2767,4.2765,4.2764,0,0,0,0,0,0,4.3102,4.3094,4.3019,4.3052,4.3042,4.3022,4.3002,4.3,4.2985,4.296,4.2955,4.298,4.2933,4.2925,4.2882,4.2862,4.2894,4.2891,4.2769,4.2767,4.2765,4.2754,0,0,0,0,0,0,4.3105,4.3095,4.3079,4.3051,4.304,4.2985,4.3001,4.2998,4.298,4.2981,4.2949,4.2944,4.2933,4.2888,4.2879,4.2858,4.2888,4.277,4.2768,4.2765,4.2756,4.2752,4.2748,0,0,0,0,0,4.3109,4.3076,4.3078,4.3069,4.3021,4.2984,4.2977,4.2968,4.2979,4.2962,4.2945,4.2945,4.2866,4.2883,4.2873,4.2851,4.2771,4.2768,4.2766,4.2757,4.2752,4.2748,0,0,0,0,0,0,4.3099,4.3073,4.3074,4.3033,4.3011,4.2984,4.2962,4.2963,4.2935,4.2937,4.2924,4.2916,4.2874,4.2858,4.2878,4.2805,4.282,4.2815,4.2817,4.2812,4.2808,4.2812,4.2885,0,0,0,0,0,4.3093,4.3068,4.3045,4.301,4.2999,4.2983,4.2966,4.2961,4.2937,4.2927,4.2907,4.2882,4.2851,4.2831,4.2801,4.2754,4.2746,4.2733,4.273,4.2727,4.2722,4.2694,4.2688,4.2754,4.2754,4.2755,0,0,4.3078,4.3061,4.3045,4.3008,4.299,4.2962,4.2975,4.2944,4.2923,4.2921,4.2881,4.2865,4.2836,4.2791,4.277,4.2776,4.2702,4.2723,4.2721,4.2717,4.2691,4.2685,4.2679,4.2752,4.2753,4.2753,0,0,4.3037,4.3022,4.2992,4.2974,4.2949,4.2938,4.2931,4.2904,4.2895,4.2855,4.2853,4.2826,4.2773,4.2752,4.2735,4.2687,4.2685,4.2677,4.2656,4.263,4.2625,4.262,4.2602,4.2595,4.2673,4.2673,4.2673,0,4.3021,4.2981,4.2975,4.2945,4.2928,4.2929,4.2896,4.2879,4.2843,4.2831,4.2839,4.2774,4.2754,4.2704,4.2692,4.2678,4.2668,4.268,4.2627,4.2622,4.2617,4.2599,4.2593,4.2672,4.2672,4.2672,4.2672,0,4.2963,4.2935,4.2913,4.2882,4.2862,4.2831,4.2818,4.2799,4.2795,4.2783,4.2741,4.2718,4.2683,4.2671,4.2666,4.262,4.2624,4.263,4.2644,4.261,4.2593,4.2586,4.2671,4.2671,4.2671,4.2671,0,0,4.2913,4.288,4.2872,4.2858,4.283,4.2807,4.2775,4.2744,4.2727,4.2703,4.2674,4.2631,4.2636,4.2616,4.2609,4.2586,4.2548,4.2594,4.2593,4.2585,4.2493,4.2489,4.2481,4.2548,4.2546,4.2545,4.2495,0,4.2868,4.2814,4.2808,4.2759,4.2732,4.2733,4.2704,4.2683,4.2671,4.2645,4.263,4.2599,4.2609,4.2597,4.2575,4.2557,4.2529,4.2561,4.2518,4.2517,4.2525,4.2472,4.2467,4.2421,4.2489,4.2488,4.2487,0,4.2808,4.2785,4.2734,4.271,4.2699,4.2674,4.2645,4.2621,4.2596,4.2588,4.2567,4.2563,4.2527,4.2544,4.2494,4.2516,4.2499,4.2488,4.2485,4.248,4.2499,4.2464,4.2406,4.2399,4.2477,4.2477,4.2478,0,4.2775,4.2731,4.2695,4.2683,4.2655,4.2637,4.2624,4.26,4.2582,4.2556,4.2543,4.2512,4.2495,4.247,4.2457,4.2471,4.2407,4.2423,4.2398,4.2398,4.2383,4.2384,4.2321,4.2374,4.2374,4.2375,4.2375,0,4.2725,4.2694,4.268,4.2658,4.2622,4.2614,4.2578,4.2565,4.2545,4.2518,4.2516,4.249,4.2475,4.2447,4.2436,4.2396,4.2388,4.2379,4.2376,4.2379,4.238,4.2366,4.2368,4.2373,4.2373,4.2374,4.2374,0,4.2682,4.2672,4.2633,4.261,4.2603,4.2578,4.2557,4.2533,4.2522,4.2489,4.248,4.2461,4.2428,4.2413,4.2371,4.2364,4.2317,4.2317,4.2326,4.2325,4.23,4.2302,4.2224,4.2213,4.2275,4.2275,4.2274,0,4.265,4.2626,4.2601,4.2585,4.2572,4.2545,4.2527,4.2518,4.2498,4.2469,4.2449,4.2416,4.2389,4.2335,4.2316,4.2284,4.2282,4.2257,4.2277,4.228,4.228,4.2281,4.2278,4.2253,4.2253,4.2252,4.2252,0,4.2594,4.259,4.2566,4.254,4.2519,4.2497,4.2475,4.2461,4.2448,4.2427,4.2394,4.2373,4.2332,4.2298,4.2265,4.2249,4.2247,4.2246,4.2238,4.2239,4.2245,4.224,4.2315,4.2247,4.2248,4.2248,4.2248,4.2248,4.2554,4.2533,4.2513,4.2485,4.2469,4.2449,4.2426,4.2413,4.2386,4.2354,4.2349,4.2314,4.2289,4.2244,4.2227,4.2197,4.2203,4.2192,4.2189,4.2186,4.2184,4.2252,4.2191,4.2191,4.2191,4.2191,4.2192,0,4.2497,4.2484,4.2459,4.2431,4.2408,4.2413,4.2389,4.2369,4.2339,4.2317,4.2291,4.2253,4.2221,4.22,4.2167,4.2147,4.2146,4.2139,4.2139,4.2135,4.2181,4.2191,4.2141,4.2141,4.2141,4.2141,4.2141,4.2141,4.2464,4.2429,4.2423,4.2378,4.2365,4.2332,4.2318,4.2299,4.2282,4.224,4.2214,4.2202,4.218,4.2145,4.2115,4.211,4.2097,4.2089,4.2084,4.2127,4.2132,4.2137,4.2146,4.2087,4.2087,4.204,4.204,4.2039]}]]